This is the latest recevied weather packets stored in our database for station/object KA3WVU. If no packets are shown the sender has not sent any weather packets the latest 10 day(s).
| Time | Temp. | Humidity | Pressure | Rain* | Wind** | Luminosity | Snow |
|---|---|---|---|---|---|---|---|
| 1778007698 | 19.44° C | 54% | 1008.7 hPa | 0 mm | - | 46 W/m² | - |
| 1778007396 | 19.44° C | 54% | 1008.7 hPa | 0 mm | - | 86 W/m² | - |
| 1778007092 | 19.44° C | 55% | 1008.5 hPa | 0 mm | - | 74 W/m² | - |
| 1778006788 | 20° C | 53% | 1008.6 hPa | 0 mm | - | 61 W/m² | - |
| 1778006485 | 20° C | 52% | 1008.6 hPa | 0 mm | - | 28 W/m² | - |
| 1778006182 | 21.11° C | 50% | 1008.6 hPa | 0 mm | - | 85 W/m² | - |
| 1778005880 | 20.56° C | 51% | 1008.5 hPa | 0 mm | - | 183 W/m² | - |
| 1778005576 | 20.56° C | 51% | 1008.5 hPa | 0 mm | - | 180 W/m² | - |
| 1778005273 | 20.56° C | 50% | 1008.5 hPa | 0 mm | - | 168 W/m² | - |
| 1778004969 | 21.11° C | 50% | 1008.4 hPa | 0 mm | - | 138 W/m² | - |
| 1778004667 | 21.11° C | 50% | 1008.5 hPa | 0 mm | - | 691 W/m² | - |
| 1778004363 | 20.56° C | 51% | 1008.3 hPa | 0 mm | - | 252 W/m² | - |
| 1778004060 | 20.56° C | 52% | 1008.2 hPa | 0 mm | - | 130 W/m² | - |
| 1778003756 | 20.56° C | 51% | 1008.4 hPa | 0 mm | - | 121 W/m² | - |
| 1778003453 | 20.56° C | 51% | 1008.3 hPa | 0 mm | - | 166 W/m² | - |
| 1778003150 | 20.56° C | 51% | 1008.1 hPa | 0 mm | - | 209 W/m² | - |
| 1778002845 | 20° C | 52% | 1008.1 hPa | 0 mm | - | 264 W/m² | - |
| 1778002543 | 19.44° C | 54% | 1008.3 hPa | 0 mm | - | 178 W/m² | - |
| 1778002239 | 18.89° C | 54% | 1008.5 hPa | 0 mm | - | 43 W/m² | - |
| 1778001937 | 19.44° C | 54% | 1008.4 hPa | 0 mm | - | 58 W/m² | - |
| 1778001633 | 19.44° C | 54% | 1008.3 hPa | 0 mm | - | 77 W/m² | - |
| 1778001328 | 18.89° C | 55% | 1008.4 hPa | 0 mm | - | 110 W/m² | - |
| 1778001025 | 18.89° C | 56% | 1008.5 hPa | 0 mm | - | 56 W/m² | - |
| 1778000722 | 18.89° C | 56% | 1008.5 hPa | 0 mm | - | 58 W/m² | - |
| 1778000419 | 18.89° C | 55% | 1008.5 hPa | 0 mm | - | 26 W/m² | - |
* Rain latest hour (hover to see other rain measurements)
** Current wind speed in m/s (hover to see current wind gust speed)